Weather History for Ironwood, MI

Change the Weather History Date:

Thursday, March 22, 2012

  Actual Average Record
Temperature  
Mean Temperature 56 °F -  
Max Temperature 59 °F 36 °F 59 °F (2012)
Min Temperature 53 °F 17 °F -7 °F (2013)
Degree Days  
Heating Degree Days 9    
Growing Degree Days 6 (Base 50)    
Moisture  
Dew Point 52 °F    
Average Humidity 89    
Maximum Humidity 94    
Minimum Humidity 82    
Precipitation  
Precipitation 0.09 in - - ()
Sea Level Pressure  
Sea Level Pressure 30.11 in    
Wind  
Wind Speed 4 mph (ESE)    
Max Wind Speed 13 mph    
Max Gust Speed -    
Visibility 8 miles    
Events      
Averages and records for this station are not official NWS values.
T = Trace of Precipitation, MM = Missing Value Source: NWS Daily Summary

Daily Weather History Graph

Daily Weather History Graph

Search for Another Location

Airport:

Trip Planner

Search our weather history database for the weather conditions in past years. The results will help you decide how hot, cold, wet, or windy it might be!

Date:

Astronomy

Mar. 22, 2012 Rise Set
Actual Time 6:58 AM CDT 7:16 PM CDT
Civil Twilight 6:28 AM CDT 7:46 PM CDT
Nautical Twilight 5:52 AM CDT 8:22 PM CDT
Astronomical Twilight 5:16 AM CDT 8:59 PM CDT
Moon 6:35 AM CDT (3/22) 7:46 PM CDT (3/22)
Length of Visible Light 13h 18m
Length of Day
12h 18m
New Moon, 0% of the Moon is Illuminated
Mar 22
New Moon
Mar 30
First Quarter
Apr 6
Full
Apr 13
Last Quarter
Apr 21
New

Hourly Weather History & Observations

Time (CDT) Temp. Dew Point Humidity Pressure Visibility Wind Dir Wind Speed Gust Speed Precip Events Conditions
12:15 AM 53.6 °F 50.0 °F 88% 30.08 in 5.0 mi Calm Calm - N/A   Scattered Clouds
12:35 AM 53.6 °F 50.0 °F 88% 30.09 in 3.0 mi Calm Calm - N/A   Mostly Cloudy
12:55 AM 53.6 °F 51.8 °F 94% 30.09 in 4.0 mi Calm Calm - N/A   Overcast
1:15 AM 53.6 °F 50.0 °F 88% 30.10 in 1.2 mi Calm Calm - N/A   Overcast
1:35 AM 53.6 °F 50.0 °F 88% 30.10 in 4.0 mi Calm Calm - N/A   Overcast
1:55 AM 53.6 °F 50.0 °F 88% 30.10 in 3.0 mi Calm Calm - N/A   Overcast
2:15 AM 53.6 °F 50.0 °F 88% 30.10 in 3.0 mi Calm Calm - N/A   Overcast
2:35 AM 53.6 °F 50.0 °F 88% 30.10 in 2.0 mi Calm Calm - N/A   Overcast
2:55 AM 53.6 °F 50.0 °F 88% 30.11 in 1.5 mi Calm Calm - 0.02 in   Overcast
3:15 AM 53.6 °F 50.0 °F 88% 30.10 in 2.0 mi Calm Calm - 0.01 in   Overcast
3:35 AM 53.6 °F 50.0 °F 88% 30.10 in 1.2 mi North 4.6 mph - 0.02 in   Overcast
3:55 AM 53.6 °F 51.8 °F 94% 30.10 in 6.0 mi Calm Calm - 0.03 in   Overcast
4:15 AM 53.6 °F 50.0 °F 88% 30.10 in 6.0 mi ESE 3.5 mph - N/A   Overcast
4:35 AM 53.6 °F 50.0 °F 88% 30.11 in 3.0 mi NE 3.5 mph - N/A   Overcast
4:55 AM 53.6 °F 51.8 °F 94% 30.11 in 10.0 mi NE 4.6 mph - 0.01 in   Overcast
5:15 AM 53.6 °F 51.8 °F 94% 30.12 in 8.0 mi East 3.5 mph - N/A   Overcast
5:35 AM 53.6 °F 51.8 °F 94% 30.13 in 8.0 mi Calm Calm - N/A   Overcast
5:55 AM 53.6 °F 51.8 °F 94% 30.13 in 10.0 mi East 5.8 mph - 0.01 in   Overcast
6:15 AM 53.6 °F 51.8 °F 94% 30.14 in 10.0 mi ENE 4.6 mph - N/A   Overcast
6:35 AM 53.6 °F 51.8 °F 94% 30.14 in 10.0 mi NE 4.6 mph - N/A   Overcast
6:55 AM 53.6 °F 51.8 °F 94% 30.14 in 10.0 mi East 5.8 mph - N/A   Overcast
7:15 AM 53.6 °F 51.8 °F 94% 30.14 in 10.0 mi East 9.2 mph - N/A   Overcast
7:35 AM 53.6 °F 51.8 °F 94% 30.14 in 10.0 mi ESE 6.9 mph - N/A   Overcast
7:55 AM 53.6 °F 51.8 °F 94% 30.15 in 10.0 mi ESE 11.5 mph - N/A   Overcast
8:15 AM 53.6 °F 51.8 °F 94% 30.15 in 10.0 mi East 12.7 mph - N/A   Overcast
8:35 AM 53.6 °F 51.8 °F 94% 30.14 in 10.0 mi East 12.7 mph - 0.01 in   Overcast
8:55 AM 53.6 °F 51.8 °F 94% 30.14 in 10.0 mi ESE 10.4 mph - 0.01 in   Overcast
9:15 AM 53.6 °F 48.2 °F 82% 30.13 in 10.0 mi ESE 9.2 mph - N/A   Overcast
9:35 AM 53.6 °F 50.0 °F 88% 30.13 in 10.0 mi ESE 10.4 mph - N/A   Overcast
9:55 AM 53.6 °F 50.0 °F 88% 30.13 in 10.0 mi ESE 6.9 mph - N/A   Overcast
10:15 AM 55.4 °F 51.8 °F 88% 30.13 in 10.0 mi ESE 6.9 mph - N/A   Overcast
10:35 AM 55.4 °F 51.8 °F 88% 30.13 in 10.0 mi SE 6.9 mph - N/A   Mostly Cloudy
10:55 AM 57.2 °F 53.6 °F 88% 30.13 in 10.0 mi SE 9.2 mph - N/A   Mostly Cloudy
11:15 AM 57.2 °F 53.6 °F 88% 30.13 in 10.0 mi SE 9.2 mph - N/A   Overcast
11:35 AM 57.2 °F 53.6 °F 88% 30.13 in 10.0 mi SE 9.2 mph - N/A   Overcast
11:55 AM 57.2 °F 53.6 °F 88% 30.14 in 10.0 mi ESE 6.9 mph - N/A   Overcast
12:15 PM 57.2 °F 53.6 °F 88% 30.13 in 10.0 mi ESE 5.8 mph - N/A   Overcast
12:35 PM 57.2 °F 53.6 °F 88% 30.13 in 10.0 mi ESE 5.8 mph - N/A   Overcast
12:55 PM 59.0 °F 55.4 °F 88% 30.13 in 10.0 mi ESE 9.2 mph - N/A   Overcast
1:15 PM 59.0 °F 55.4 °F 88% 30.12 in 10.0 mi East 5.8 mph - N/A   Overcast
1:35 PM 59.0 °F 55.4 °F 88% 30.12 in 10.0 mi East 6.9 mph - N/A   Overcast
1:55 PM 59.0 °F 55.4 °F 88% 30.11 in 10.0 mi ESE 9.2 mph - N/A   Overcast
2:15 PM 59.0 °F 55.4 °F 88% 30.11 in 10.0 mi ESE 10.4 mph - N/A   Overcast
2:35 PM 59.0 °F 53.6 °F 82% 30.10 in 10.0 mi SE 6.9 mph - N/A   Overcast
2:55 PM 59.0 °F 53.6 °F 82% 30.10 in 10.0 mi SE 10.4 mph - N/A   Overcast
3:15 PM 59.0 °F 53.6 °F 82% 30.09 in 10.0 mi ESE 9.2 mph - N/A   Overcast
3:35 PM 59.0 °F 53.6 °F 82% 30.09 in 10.0 mi SE 6.9 mph - N/A   Overcast
3:55 PM 57.2 °F 51.8 °F 82% 30.09 in 10.0 mi ESE 5.8 mph - N/A   Overcast
4:15 PM 57.2 °F 51.8 °F 82% 30.09 in 10.0 mi ESE 5.8 mph - N/A   Overcast
4:35 PM 57.2 °F 53.6 °F 88% 30.09 in 10.0 mi ESE 3.5 mph - N/A   Overcast
4:55 PM 57.2 °F 53.6 °F 88% 30.09 in 10.0 mi ESE 6.9 mph - 0.01 in   Overcast
5:15 PM 57.2 °F 51.8 °F 82% 30.09 in 10.0 mi East 6.9 mph - N/A   Overcast
5:35 PM 55.4 °F 51.8 °F 88% 30.08 in 10.0 mi East 6.9 mph - N/A   Overcast
5:55 PM 55.4 °F 53.6 °F 94% 30.08 in 10.0 mi East 8.1 mph - N/A   Overcast
6:15 PM 55.4 °F 51.8 °F 88% 30.07 in 10.0 mi East 8.1 mph - N/A   Overcast
6:35 PM 55.4 °F 51.8 °F 88% 30.07 in 10.0 mi East 9.2 mph - N/A   Overcast
6:55 PM 55.4 °F 51.8 °F 88% 30.07 in 10.0 mi ENE 6.9 mph - N/A   Overcast
7:15 PM 55.4 °F 51.8 °F 88% 30.06 in 10.0 mi East 8.1 mph - N/A   Overcast
7:35 PM 55.4 °F 51.8 °F 88% 30.06 in 10.0 mi East 6.9 mph - N/A   Mostly Cloudy
7:55 PM 55.4 °F 51.8 °F 88% 30.07 in 10.0 mi East 6.9 mph - N/A   Mostly Cloudy
8:15 PM 55.4 °F 51.8 °F 88% 30.07 in 10.0 mi East 8.1 mph - N/A   Overcast
8:35 PM 55.4 °F 51.8 °F 88% 30.08 in 10.0 mi East 10.4 mph - N/A   Overcast
8:55 PM 55.4 °F 51.8 °F 88% 30.07 in 10.0 mi East 10.4 mph - N/A   Overcast
9:15 PM 55.4 °F 51.8 °F 88% 30.06 in 10.0 mi East 10.4 mph - N/A   Overcast
9:35 PM 55.4 °F 51.8 °F 88% 30.06 in 10.0 mi East 10.4 mph - N/A   Overcast
9:55 PM 55.4 °F 51.8 °F 88% 30.06 in 10.0 mi ESE 10.4 mph - N/A   Overcast
10:15 PM 57.2 °F 51.8 °F 82% 30.06 in 10.0 mi ESE 12.7 mph - N/A   Overcast
10:35 PM 57.2 °F 51.8 °F 82% 30.06 in 10.0 mi ESE 8.1 mph - N/A   Overcast
10:55 PM 57.2 °F 51.8 °F 82% 30.06 in 10.0 mi ESE 10.4 mph - N/A   Overcast
11:15 PM 55.4 °F 51.8 °F 88% 30.06 in 10.0 mi ESE 10.4 mph - N/A   Overcast
11:35 PM 55.4 °F 51.8 °F 88% 30.05 in 8.0 mi East 9.2 mph - 0.02 in   Overcast
11:55 PM 55.4 °F 51.8 °F 88% 30.04 in 10.0 mi East 12.7 mph - 0.03 in   Overcast